Temp_Advection
nan nan nan nan nan nan nan nan nan nan nan nan nan nan nan nan nan nan nan nan nan nan nan nan nan nan nan nan nan nan nan nan nan nan nan nan nan nan nan nan nan nan nan nan
nan -1 -1 0 1 0 -0 -0 -1 -0 0 0 -1 -1 -1 -0 0 0 0 0 0 0 0 -0 -0 0 0 0 0 0 0 -0 0 1 0 1 0 0 0 0 1 1 1 nan
nan -0 1 1 1 -0 -0 -1 -0 -0 -0 0 -0 -1 -1 0 0 0 0 0 0 0 -0 -0 -0 -0 0 0 0 0 0 0 0 0 0 0 -0 -0 -0 0 1 1 0 nan
nan 0 0 1 -0 -0 -1 -0 1 0 -0 -0 0 -1 -1 0 -0 -0 1 0 0 0 0 -0 -0 -0 0 0 0 0 -0 0 0 -0 0 0 -0 -0 0 0 0 -0 -0 nan
nan 0 0 -0 -0 -0 -1 -0 0 -0 -0 -0 -0 -1 -0 0 -0 -0 0 0 1 0 0 -0 -0 -0 -0 -0 0 0 0 0 -0 0 0 0 0 0 0 0 -0 -0 0 nan
nan 0 -0 -0 0 -0 -0 0 -0 0 0 0 -1 -1 -1 -0 -0 0 -0 0 0 0 0 -0 -0 -0 -0 -0 0 0 0 0 0 0 0 0 0 0 -0 -0 -0 1 -0 nan
nan -0 -0 0 0 -0 0 0 0 0 -0 -1 -0 0 -1 -0 -0 0 -0 1 0 0 -0 -0 -1 -0 -0 -0 -0 -0 0 0 0 -0 0 0 0 -0 -0 -0 -0 1 0 nan
nan -0 -1 -0 -0 -0 -0 -0 -0 -0 -0 -0 0 -0 -1 -0 0 0 0 0 0 0 -0 -1 -1 -0 -0 -0 -0 -0 0 0 0 0 0 0 0 -0 -0 -1 -0 -0 0 nan
nan -0 -0 -0 -0 -0 -0 -1 0 0 0 -0 -1 -0 -0 -0 -0 -0 0 0 0 0 -0 -1 -0 -0 -0 -0 -0 -1 -1 -0 -0 0 0 -0 0 0 0 0 0 0 0 nan
nan -0 0 0 0 -0 -0 0 0 0 0 -1 -0 -0 -0 0 -0 -0 -0 0 0 0 0 -0 0 -0 -0 -0 -1 -1 -2 -1 -1 -0 -0 -0 -0 0 0 0 0 0 0 nan
nan -0 0 -0 -0 0 0 0 -0 -0 -0 -0 -1 -1 -0 -0 -1 -0 0 0 0 -0 0 0 0 0 0 -0 -1 -1 -1 -1 -1 -0 -0 -0 -0 -0 -0 -0 -0 0 0 nan
nan -0 -0 -0 -1 -0 -0 -0 1 0 0 0 -0 -1 -0 -0 -0 -0 0 -0 -0 0 0 0 1 0 0 -0 -0 -0 -0 -0 0 -0 -1 -1 -1 -1 -1 -1 -0 -0 -0 nan
nan 0 -0 -0 0 -0 0 -0 -0 -0 -0 0 -0 -0 0 0 -0 -1 -0 0 0 0 -0 -0 0 0 0 0 -0 -0 -0 1 1 -0 -1 -1 -2 -1 -1 -1 -0 -0 -1 nan
nan -0 -0 -0 -0 -0 -0 -0 -0 0 -0 -1 -1 -1 -1 -0 -0 -1 -0 -0 0 0 0 -0 -0 -0 -0 0 -0 -0 1 1 1 1 0 -1 -0 0 0 0 0 -1 -1 nan
nan 0 -0 -0 -0 -0 -0 -0 -0 -1 -0 -0 -1 -2 -1 -0 -0 -1 -1 -0 0 0 -0 -0 -0 -0 -0 -0 -1 -1 -1 -1 0 0 -0 1 1 1 1 0 -0 0 0 nan
nan 0 0 -0 -1 -0 -1 -1 -0 -0 -1 -1 -0 -1 -1 -0 -1 -0 -0 -0 0 0 0 0 0 0 0 -2 -2 0 -0 0 -0 -0 1 1 -0 0 1 1 1 1 2 nan
nan 0 0 -0 0 0 -0 -1 -2 -1 -0 0 -1 -2 -1 -0 -0 0 -0 -0 0 0 0 0 0 1 -0 -1 2 1 1 0 0 0 0 0 0 1 1 0 1 1 0 nan
nan -0 -0 -0 -0 -1 -1 -0 0 -0 -0 -0 -0 -1 -1 -1 -0 0 0 0 0 0 -0 -0 0 0 -0 1 1 -0 1 0 1 1 0 0 0 0 0 1 0 0 -0 nan
nan 0 0 -0 -1 -1 -1 -0 0 -0 0 -0 -0 -1 -1 -2 -1 -1 0 1 -0 -1 -0 -0 -0 0 0 1 1 2 1 2 2 1 1 2 2 1 1 0 0 0 0 nan
nan 1 0 0 -0 -0 1 -0 -1 -0 0 -0 -0 -0 -1 -2 -1 -1 0 0 0 -1 -1 1 1 1 2 2 2 3 2 1 2 2 2 1 1 1 0 0 0 0 1 nan
nan 0 -0 -0 -0 -1 -1 -0 -0 0 -0 -0 -0 -0 -1 -1 -1 -2 -1 -1 -1 1 -0 1 1 2 2 2 2 2 2 1 1 1 1 1 1 1 1 1 1 1 1 nan
nan -1 -1 -0 -0 -1 -0 -0 -0 -0 -0 -0 0 1 -0 -3 -2 -1 0 -0 -0 0 0 2 1 1 1 1 2 1 2 2 1 1 1 1 1 1 1 1 1 0 1 nan
nan -1 -0 -0 -1 -0 0 -0 -0 -0 0 -0 -0 1 2 -0 -1 -0 0 -0 0 0 0 1 0 0 1 1 1 0 0 1 1 1 1 1 1 1 0 0 1 0 0 nan
nan 0 0 -0 -1 -0 1 1 0 0 -0 0 1 -0 -0 1 0 0 0 0 0 0 0 1 0 -1 1 2 2 2 1 0 0 0 0 1 1 1 1 0 0 1 0 nan
nan 0 0 -0 -0 0 0 0 0 0 -0 -1 -0 0 0 1 0 0 1 1 1 1 0 0 1 -0 -0 1 0 1 1 0 -0 -0 0 0 1 0 0 -0 -0 0 0 nan
nan nan nan nan nan nan nan nan nan nan nan nan nan nan nan nan nan nan nan nan nan nan nan nan nan nan nan nan nan nan nan nan nan nan nan nan nan nan nan nan nan nan nan nan
Wind_Speed
22 14 19 22 22 19 12 13 14 10 0 5 14 19 16 16 8 11 12 13 13 12 9 8 7 7 7 8 11 13 9 14 14 20 27 25 31 42 42 41 44 42 35 30
10 21 20 17 17 17 18 17 18 13 7 7 13 17 17 15 11 8 10 13 15 14 13 11 9 9 10 11 12 13 12 11 17 22 27 32 35 42 40 40 40 41 36 33
19 4 20 16 16 17 18 20 17 15 7 14 15 19 20 13 9 9 11 13 15 18 17 15 13 12 15 15 15 16 15 14 18 23 27 29 37 42 41 43 42 36 39 35
15 17 9 20 22 16 20 18 16 18 12 10 3 9 12 8 15 14 16 15 17 19 18 17 16 16 16 17 17 17 18 18 20 22 28 32 35 37 44 45 46 41 44 37
9 11 19 16 17 16 16 13 11 15 16 14 15 9 9 2 10 12 6 18 18 21 21 20 18 16 17 18 19 19 19 21 24 24 29 33 34 24 33 43 49 44 37 33
10 2 8 17 12 14 2 11 5 7 9 12 16 13 8 8 7 6 2 4 16 22 22 19 18 17 17 19 19 19 21 23 24 29 29 33 35 32 29 35 47 49 40 39
19 17 9 7 8 13 16 9 5 7 7 8 7 11 15 5 5 9 11 7 13 21 24 24 22 21 20 21 22 20 21 24 26 27 31 33 32 35 27 34 40 38 44 47
11 9 22 17 21 9 18 17 7 9 8 7 12 8 10 7 7 7 5 7 11 20 25 27 25 22 21 21 22 23 23 23 28 29 29 28 27 31 28 33 32 40 43 39
3 5 2 9 16 18 11 16 18 13 11 7 9 9 10 12 12 10 9 6 12 19 26 27 27 25 23 23 23 24 24 24 26 29 29 29 29 30 27 27 31 31 35 36
3 3 1 2 7 16 18 4 8 10 7 11 9 12 7 5 10 2 8 8 10 18 22 25 26 28 26 25 23 23 24 25 25 26 28 28 30 32 30 30 30 32 33 33
5 3 1 4 6 7 9 12 10 7 12 10 10 8 6 14 14 11 4 3 8 16 18 21 24 24 26 25 26 26 26 26 27 26 27 28 29 32 33 32 32 32 32 34
6 1 4 5 8 8 7 9 16 12 13 10 12 13 2 4 10 5 3 1 2 10 14 17 20 23 25 27 26 29 28 29 28 27 28 29 29 29 32 35 33 32 35 34
7 3 2 3 4 3 3 2 3 6 10 18 14 5 3 10 13 19 16 13 4 7 13 15 18 22 24 26 27 28 30 31 30 29 29 30 31 32 33 34 34 35 35 34
3 3 6 6 7 5 7 7 10 7 6 12 16 17 16 18 14 14 22 15 9 8 14 15 18 21 23 25 27 28 29 30 31 32 31 32 32 32 31 30 30 32 33 33
5 8 9 10 12 15 16 16 17 17 14 15 16 19 16 12 16 22 26 24 17 7 13 17 18 20 22 24 25 25 25 28 30 31 32 33 31 31 30 30 31 32 32 32
3 2 3 8 13 15 20 22 21 20 20 22 19 24 20 24 25 24 24 25 20 15 11 9 15 19 23 25 27 27 26 25 26 27 28 25 26 28 29 29 29 28 27 25
2 3 3 4 2 7 13 19 25 23 19 18 19 19 17 19 20 26 24 24 21 21 17 16 16 20 24 27 27 24 27 26 25 23 22 22 22 22 23 23 22 22 21 22
6 6 4 4 5 8 9 6 12 17 13 10 13 14 16 21 25 26 20 16 16 16 17 20 22 18 18 21 22 25 23 25 25 24 22 22 21 21 21 21 21 21 20 21
16 11 4 4 8 14 18 9 10 13 14 5 7 10 14 16 27 29 30 26 27 28 26 23 22 19 23 28 23 25 27 27 25 25 23 22 22 21 19 16 16 17 17 17
16 15 8 5 4 4 5 10 13 10 13 9 11 12 11 18 9 10 22 22 12 16 19 21 15 19 19 20 21 23 25 24 26 24 22 19 18 18 18 16 14 13 13 12
9 6 12 10 8 9 11 17 15 8 5 19 15 17 18 12 13 26 24 18 17 14 11 11 9 12 15 17 22 24 28 26 24 23 23 23 21 19 16 15 13 11 10 9
9 9 6 9 8 11 1 3 5 9 15 21 20 16 16 28 24 20 14 11 7 5 5 10 12 15 17 21 26 30 30 30 29 28 27 25 23 20 18 14 14 12 11 12
6 8 5 8 6 4 5 12 18 20 21 19 25 21 21 29 23 12 11 6 0 5 9 16 21 22 22 22 27 34 34 30 28 26 24 22 19 18 18 15 16 17 14 14
11 12 7 11 12 13 15 15 18 15 16 21 21 20 25 20 5 7 5 4 6 12 17 24 29 33 34 35 35 34 35 27 23 25 26 24 22 22 23 19 18 18 16 13
8 9 10 12 13 15 16 12 14 16 22 20 22 28 19 12 6 6 6 9 8 17 22 27 33 37 36 35 33 30 29 27 27 28 28 25 24 23 24 23 19 16 16 13
13 12 9 10 13 13 19 19 12 18 18 18 22 19 9 8 6 3 9 7 9 20 28 32 33 35 34 32 31 30 29 27 28 30 29 27 25 24 21 20 20 16 13 9
Wind_Direction
201 208 213 215 221 242 287 264 262 260 172 263 258 261 270 272 258 250 246 229 222 210 197 190 181 196 195 184 192 200 177 167 168 162 154 161 155 160 160 170 174 177 172 183
185 229 224 231 238 237 239 255 256 264 278 250 271 269 267 274 258 259 239 230 215 197 190 189 183 185 188 192 188 195 192 177 178 172 168 168 166 162 165 169 177 181 179 181
220 220 221 218 220 228 235 244 254 260 250 270 269 271 257 251 243 232 240 233 215 201 193 187 189 188 186 196 194 195 196 199 185 182 183 180 171 172 171 176 178 180 186 190
235 239 211 215 229 223 243 236 257 263 259 259 143 286 271 250 263 257 247 220 211 203 194 187 192 189 189 197 199 196 191 196 198 190 187 186 180 179 185 184 175 181 187 197
205 218 212 218 221 208 247 263 249 255 250 257 255 258 257 241 253 268 302 215 212 202 195 187 192 193 187 190 195 195 195 195 201 194 197 190 185 184 188 189 186 190 188 189
251 219 219 227 215 209 195 228 256 248 244 237 240 241 266 257 237 190 50 220 211 197 192 191 185 189 189 189 189 193 196 200 199 202 201 198 199 189 195 196 196 198 204 202
227 239 226 226 198 203 224 234 231 221 211 240 211 216 239 233 261 254 293 268 209 196 188 187 185 190 191 193 192 192 192 197 199 200 207 207 208 201 200 197 201 197 205 209
205 213 222 219 228 206 210 210 221 225 228 241 175 229 234 226 264 264 240 245 215 200 193 191 187 192 195 196 198 197 194 194 197 197 202 199 201 196 207 206 205 210 210 212
231 221 336 239 217 220 192 224 236 274 270 273 249 226 274 250 244 243 240 241 218 203 194 195 187 193 195 196 200 200 197 197 199 199 197 201 199 200 202 204 206 206 209 214
23 249 70 129 205 228 241 199 206 217 240 234 240 233 241 211 222 229 228 254 213 196 198 197 197 191 194 197 201 207 205 202 200 200 201 203 203 206 208 210 209 211 214 215
360 279 148 291 211 201 197 221 241 267 224 257 265 246 188 240 260 279 268 293 213 190 194 199 202 202 197 195 197 208 210 207 205 204 205 206 209 211 213 216 218 218 221 223
12 315 254 262 284 308 301 241 231 241 226 231 254 253 242 304 301 320 297 29 175 191 197 197 202 203 203 202 201 207 211 214 213 208 208 210 210 212 217 221 222 224 228 229
2 183 235 218 200 99 249 47 302 299 280 254 255 243 106 331 300 288 295 280 284 212 189 189 193 200 208 209 208 210 216 217 216 214 215 216 218 219 221 223 226 229 231 233
268 230 259 264 341 330 283 274 292 291 268 269 255 264 260 273 278 289 292 273 286 234 213 197 195 197 203 211 213 213 215 218 216 216 218 222 224 225 228 231 232 234 239 243
228 238 238 258 278 287 278 271 268 265 266 259 275 274 273 267 259 275 279 279 291 248 219 204 204 206 204 208 211 213 212 215 216 216 219 224 225 229 230 232 237 242 245 248
14 206 237 257 259 264 268 263 259 257 263 278 263 261 257 266 267 260 263 261 262 264 247 236 227 218 214 212 213 212 213 213 214 216 219 220 225 230 233 238 240 244 246 245
284 171 194 249 186 279 266 254 249 254 253 272 276 279 281 254 249 254 249 258 252 258 265 265 252 237 224 223 216 211 209 208 210 210 214 217 219 224 226 232 235 238 240 244
226 204 214 259 277 249 248 328 283 246 250 305 323 309 268 267 256 249 249 263 272 274 278 284 272 252 243 236 223 211 208 207 205 204 206 207 210 214 219 226 232 238 244 246
218 221 243 242 238 285 285 307 254 248 271 65 2 338 340 306 275 274 267 271 274 275 277 278 271 257 238 245 230 216 205 202 201 198 204 204 203 206 211 214 214 219 224 230
207 219 219 198 262 261 81 9 339 310 263 16 6 342 343 324 282 271 277 297 287 267 262 265 254 239 232 219 213 197 193 190 191 192 188 184 180 179 181 188 196 205 210 212
179 192 223 232 246 269 284 297 321 257 346 344 327 330 331 316 307 308 289 294 287 262 258 244 207 191 184 181 179 179 181 170 173 165 161 159 161 164 168 173 174 177 182 191
176 188 194 225 237 260 290 36 356 317 318 318 314 329 323 305 300 319 303 302 288 236 197 172 164 157 156 164 170 158 149 148 153 155 153 151 151 150 149 160 157 158 162 160
230 222 214 204 214 238 216 291 294 287 292 318 309 301 305 297 285 328 302 299 242 134 138 138 150 143 143 152 163 147 139 142 145 144 140 141 143 143 135 137 138 138 140 142
233 243 245 260 256 271 274 275 285 288 293 310 309 301 308 269 251 346 269 252 168 155 143 144 143 138 135 141 140 139 138 141 143 135 127 128 129 130 124 132 131 131 130 131
248 235 244 257 264 270 267 279 289 295 312 318 328 321 301 234 236 334 268 195 177 157 152 150 144 138 134 136 134 131 128 136 135 129 125 127 125 125 125 122 115 118 116 121
241 244 248 259 279 290 290 295 302 308 315 326 322 325 302 268 243 255 207 174 184 153 150 146 138 135 133 132 128 125 129 132 130 122 127 125 124 120 120 121 121 115 114 117
Height
1471 1469 1462 1461 1462 1460 1457 1457 1456 1450 1454 1458 1454 1447 1440 1439 1441 1443 1444 1446 1449 1451 1453 1453 1454 1454 1456 1458 1461 1463 1465 1467 1469 1474 1474 1477 1480 1486 1493 1502 1510 1517 1523 1529
1466 1460 1455 1457 1459 1463 1459 1461 1456 1451 1451 1457 1448 1441 1435 1434 1434 1437 1438 1441 1444 1447 1449 1451 1453 1453 1455 1456 1459 1463 1465 1466 1469 1474 1478 1480 1485 1491 1497 1503 1512 1518 1522 1527
1451 1446 1452 1457 1461 1462 1456 1456 1453 1456 1449 1450 1446 1442 1431 1427 1432 1434 1434 1435 1438 1441 1445 1447 1450 1451 1452 1456 1458 1460 1463 1466 1469 1473 1478 1483 1487 1493 1498 1504 1509 1516 1521 1529
1449 1445 1449 1454 1454 1456 1453 1447 1452 1457 1456 1452 1446 1446 1422 1423 1424 1423 1425 1430 1433 1438 1441 1443 1446 1448 1450 1453 1457 1459 1462 1465 1468 1472 1478 1482 1485 1491 1497 1501 1506 1512 1518 1524
1441 1445 1446 1449 1446 1451 1451 1446 1451 1450 1449 1448 1445 1448 1419 1421 1424 1416 1415 1420 1428 1433 1436 1438 1442 1445 1447 1451 1455 1458 1460 1463 1467 1471 1476 1482 1487 1493 1496 1501 1505 1510 1515 1520
1438 1444 1442 1440 1442 1446 1447 1449 1449 1447 1446 1453 1442 1439 1420 1413 1413 1411 1415 1419 1424 1428 1431 1437 1439 1444 1446 1448 1452 1455 1458 1461 1465 1469 1474 1479 1484 1490 1494 1500 1504 1507 1512 1517
1443 1439 1440 1440 1442 1443 1447 1448 1450 1456 1451 1445 1424 1433 1419 1409 1409 1411 1411 1415 1421 1424 1427 1432 1435 1440 1444 1444 1448 1453 1456 1459 1463 1467 1472 1476 1481 1487 1493 1497 1502 1506 1510 1515
1436 1440 1433 1433 1433 1436 1442 1442 1437 1447 1435 1426 1419 1431 1411 1406 1406 1408 1411 1415 1417 1421 1423 1426 1429 1436 1440 1442 1445 1449 1453 1457 1460 1465 1470 1475 1480 1485 1490 1494 1499 1501 1506 1511
1435 1432 1427 1429 1430 1431 1433 1438 1429 1435 1433 1441 1417 1414 1408 1405 1405 1405 1407 1410 1412 1416 1418 1422 1423 1430 1436 1439 1442 1445 1449 1455 1458 1462 1467 1471 1476 1481 1485 1491 1495 1498 1502 1507
1442 1439 1429 1428 1428 1429 1427 1425 1440 1436 1446 1440 1414 1415 1410 1404 1402 1401 1403 1403 1407 1410 1414 1418 1421 1421 1428 1433 1438 1442 1446 1450 1455 1459 1463 1467 1471 1476 1482 1486 1489 1493 1497 1501
1442 1440 1433 1430 1424 1421 1429 1431 1428 1422 1426 1426 1423 1410 1400 1404 1400 1399 1399 1403 1403 1407 1410 1413 1418 1422 1424 1427 1431 1435 1440 1445 1449 1454 1458 1462 1467 1471 1476 1480 1484 1487 1492 1495
1449 1444 1441 1436 1428 1428 1426 1422 1422 1427 1423 1421 1419 1414 1397 1404 1400 1402 1401 1403 1403 1404 1407 1409 1414 1419 1422 1424 1427 1427 1433 1438 1444 1449 1453 1457 1461 1465 1469 1472 1477 1482 1485 1489
1451 1445 1443 1434 1430 1431 1432 1433 1431 1430 1425 1423 1427 1418 1400 1405 1405 1401 1399 1402 1402 1403 1404 1405 1408 1412 1417 1420 1422 1424 1427 1431 1438 1443 1447 1451 1455 1459 1462 1466 1471 1475 1478 1482
1453 1447 1443 1437 1433 1435 1437 1433 1431 1432 1434 1420 1414 1412 1406 1405 1404 1401 1397 1398 1399 1401 1402 1402 1404 1406 1411 1415 1417 1419 1422 1426 1430 1435 1440 1444 1449 1453 1457 1461 1464 1468 1471 1475
1449 1447 1445 1444 1442 1439 1436 1434 1430 1428 1423 1426 1419 1412 1404 1401 1402 1401 1400 1396 1396 1398 1400 1398 1399 1401 1403 1408 1411 1414 1417 1420 1424 1428 1432 1437 1443 1448 1451 1455 1457 1460 1464 1467
1452 1445 1447 1448 1442 1437 1429 1421 1419 1419 1416 1409 1409 1406 1404 1403 1399 1397 1395 1393 1394 1394 1397 1397 1398 1398 1398 1400 1403 1407 1411 1414 1418 1422 1426 1433 1437 1441 1444 1447 1451 1454 1457 1460
1453 1454 1456 1441 1434 1433 1429 1420 1413 1407 1403 1405 1405 1398 1393 1391 1391 1389 1390 1387 1388 1389 1389 1390 1392 1392 1393 1394 1396 1402 1405 1409 1412 1417 1421 1425 1429 1434 1438 1441 1445 1448 1451 1453
1451 1456 1456 1445 1443 1437 1408 1404 1400 1399 1399 1398 1398 1394 1391 1387 1384 1382 1384 1385 1384 1385 1385 1384 1385 1388 1386 1390 1392 1395 1399 1402 1406 1411 1415 1419 1422 1427 1431 1434 1438 1441 1444 1447
1446 1448 1450 1443 1430 1415 1409 1401 1401 1400 1396 1402 1401 1400 1394 1388 1382 1377 1380 1383 1381 1380 1379 1377 1378 1379 1380 1382 1385 1387 1392 1395 1401 1404 1408 1412 1416 1419 1424 1429 1433 1437 1439 1442
1438 1444 1444 1438 1436 1422 1401 1403 1406 1406 1403 1404 1402 1401 1397 1393 1382 1378 1378 1375 1373 1375 1372 1372 1372 1371 1373 1375 1377 1382 1386 1390 1394 1399 1404 1408 1413 1417 1420 1425 1429 1433 1435 1437
1436 1444 1443 1440 1439 1417 1409 1405 1408 1408 1404 1402 1402 1402 1399 1396 1392 1386 1379 1375 1369 1368 1367 1363 1365 1366 1367 1370 1372 1378 1382 1381 1393 1397 1402 1406 1411 1416 1420 1423 1427 1430 1433 1435
1424 1430 1432 1433 1434 1424 1407 1408 1413 1410 1406 1405 1401 1399 1398 1395 1388 1383 1378 1374 1367 1363 1365 1358 1364 1362 1363 1368 1371 1376 1382 1386 1392 1397 1399 1404 1409 1414 1417 1421 1423 1429 1432 1433
1414 1408 1408 1412 1407 1405 1408 1409 1407 1406 1403 1401 1399 1394 1392 1391 1386 1380 1377 1373 1368 1365 1366 1359 1361 1358 1365 1370 1375 1375 1381 1388 1396 1399 1401 1404 1410 1416 1416 1423 1424 1427 1433 1435
1402 1405 1406 1407 1403 1401 1402 1403 1402 1402 1401 1397 1393 1390 1385 1382 1381 1377 1377 1376 1371 1367 1365 1361 1359 1361 1366 1371 1376 1381 1379 1389 1397 1401 1403 1409 1411 1417 1413 1424 1429 1429 1433 1437
1401 1401 1402 1401 1400 1399 1399 1399 1399 1398 1396 1392 1388 1383 1379 1379 1377 1373 1376 1374 1373 1368 1366 1364 1363 1362 1370 1374 1381 1385 1383 1391 1400 1404 1405 1413 1416 1417 1418 1424 1431 1434 1436 1440
1401 1399 1399 1397 1396 1396 1394 1395 1395 1395 1392 1387 1384 1379 1378 1377 1374 1371 1369 1375 1375 1369 1366 1366 1367 1370 1374 1378 1382 1384 1391 1399 1402 1400 1410 1413 1418 1420 1424 1425 1431 1438 1441 1442